User: anonymous   Login
Location: Holyhead Bay
(53.3667°N, 4.6667°W)
Time: 15:59:43
(UTC+00:00)
Language:

ADEOS Rocket - Orbit

View from above orbital plane
View from above orbital plane
View from above satellite
View from above satellite

Ground track
Ground track

The orbit data is extracted from the following two-line orbital elements,

1 24279U 96046C   21136.43168444  .00000042  00000-0  10071-3 0  9994
2 24279  98.7279 281.3722 0299098 243.2879 180.4383 13.47184115216400
Epoch (UTC): 16 May 2021 10:21:37
Eccentricity: 0.0299098
inclination: 98.7279°
perigee height: 859 km
apogee height: 1306 km
right ascension of ascending node: 281.3722°
argument of perigee: 243.2879°
revolutions per day: 13.47184115
mean anomaly at epoch: 180.4383°
orbit number at epoch: 21640

The dashed part of the orbit path shows where the satellite is in the earth's shadow,  

DLR